Location: Ajisawe
(8.4333°N, 4.3833°E)
Time: 14:03:02
(UTC+00:00)

Courier 1B Rocket - Pass Details

Date: 02 May 2021
Orbit: 920 x 1202 km, 28.2° (Epoch: 07 May)

Event Time Altitude Azimuth Distance (km) Brightness Sun altitude
Rises 08:29:39 0° 207° (SSW) 3,993 7.9 43.1°
Reaches altitude 10° 08:33:59 10° 185° (S) 2,977 7.5 44.2°
Maximum altitude 08:37:54 15° 153° (SSE) 2,561 7.5 45.1°
Drops below altitude 10° 08:41:40 10° 120° (ESE) 2,862 8.1 46.0°
Sets 08:45:40 0° 97° (E) 3,751 8.7 47.0°
